TimeEST,TemperatureF,Dew PointF,Humidity,Sea Level PressureIn,VisibilityMPH,Wind Direction,Wind SpeedMPH,Gust SpeedMPH,PrecipitationIn,Events,Conditions,WindDirDegrees,DateUTC
12:54 AM,27.0,3.0,36,30.27,10.0,SE,3.5,-,N/A,,Clear,140,2013-02-18 05:54:00
1:54 AM,26.1,3.9,39,30.29,10.0,West,5.8,-,N/A,,Clear,280,2013-02-18 06:54:00
2:54 AM,24.1,3.9,42,30.31,10.0,West,5.8,-,N/A,,Clear,280,2013-02-18 07:54:00
3:54 AM,23.0,3.9,44,30.31,10.0,WSW,3.5,-,N/A,,Clear,240,2013-02-18 08:54:00
4:54 AM,24.1,3.9,42,30.33,10.0,NNW,3.5,-,N/A,,Clear,330,2013-02-18 09:54:00
5:54 AM,23.0,5.0,46,30.35,10.0,Calm,Calm,-,N/A,,Clear,0,2013-02-18 10:54:00
6:54 AM,23.0,7.0,50,30.35,10.0,North,4.6,-,N/A,,Clear,350,2013-02-18 11:54:00
7:54 AM,23.0,10.0,58,30.38,10.0,Calm,Calm,-,N/A,,Clear,0,2013-02-18 12:54:00
8:54 AM,28.0,9.0,45,30.38,10.0,East,3.5,-,N/A,,Clear,80,2013-02-18 13:54:00
9:54 AM,35.1,10.0,35,30.37,10.0,Variable,4.6,-,N/A,,Clear,0,2013-02-18 14:54:00
10:54 AM,37.0,10.9,34,30.36,10.0,SSE,6.9,-,N/A,,Clear,160,2013-02-18 15:54:00
11:54 AM,42.1,12.0,29,30.34,10.0,SSE,5.8,-,N/A,,Clear,150,2013-02-18 16:54:00
12:54 PM,45.0,14.0,29,30.30,10.0,Variable,4.6,-,N/A,,Clear,0,2013-02-18 17:54:00
1:54 PM,50.0,16.0,26,30.27,10.0,SSW,4.6,-,N/A,,Clear,200,2013-02-18 18:54:00
2:54 PM,52.0,16.0,24,30.23,10.0,ESE,9.2,-,N/A,,Clear,110,2013-02-18 19:54:00
3:54 PM,53.1,16.0,23,30.22,10.0,ESE,10.4,-,N/A,,Clear,120,2013-02-18 20:54:00
4:54 PM,51.1,18.0,27,30.22,10.0,SE,11.5,18.4,N/A,,Clear,140,2013-02-18 21:54:00
5:54 PM,48.9,19.0,31,30.22,10.0,SSE,10.4,-,N/A,,Clear,160,2013-02-18 22:54:00
6:54 PM,46.9,19.0,33,30.23,10.0,SSE,8.1,-,N/A,,Clear,160,2013-02-18 23:54:00
7:54 PM,44.1,19.0,37,30.23,10.0,SSE,9.2,-,N/A,,Clear,150,2013-02-19 00:54:00
8:54 PM,43.0,19.9,40,30.21,10.0,SE,9.2,-,N/A,,Clear,130,2013-02-19 01:54:00
9:54 PM,43.0,19.9,40,30.20,10.0,East,6.9,-,N/A,,Clear,100,2013-02-19 02:54:00
10:54 PM,41.0,21.0,45,30.19,10.0,East,6.9,-,N/A,,Clear,90,2013-02-19 03:54:00
11:54 PM,39.0,21.9,50,30.15,10.0,SSE,9.2,-,N/A,,Clear,150,2013-02-19 04:54:00